Volver al catálogo

STARLINK-11609

ActivoComunicacionesVLEO
NORAD 63132·PAYLOAD·🇺🇸 United States

Lanzado Mar 3, 2025 desde Cape Canaveral Space Force Station

Loading…

Próximos Pases (próximas 24 horas)

TLE

ActualizadoSource: CelesTrak SupGP

Época: Sep 14, 2026, 21:37 UTC

1 63132C 25043A   26257.90118056  .00028364  00000+0  22036-3 0  2576
2 63132  43.0008 190.3190 0001422 262.2732 291.3959 15.70817847    15

Sigue STARLINK-11609 en tiempo real con AllMySat

Download on the App Store